Latest Coastal Weather Observations for Yarram Airport

IDV60701

Issued at 6:21 am EST Friday 29 July 2016 (issued every 10 minutes, with the page automatically refreshed every 10 minutes)

About coastal observations | Map of coastal stations | Coastal observations for VIC | Marine services | Other Formats
Station Details ID: 085151 Name: YARRAM AIRPORT Lat: -38.56 Lon: 146.75 Height: 17.9 m
Data from the previous 72 hours. | See also: Recent months at Yarram Airport
Date/Time
EST
Temp
°C
Wind Pressure Rain since
9am
mm
Weather Cloud Vis
km
Sea
Height
m
Swell
Dir  Spd
kts
Gust
kts
hPa Trend Height
m
Period
s
Dir
29/06:00am 11.7 WNW 17 28 1017.4 - 0.0 - - - - - - -
29/05:57am 11.7 WNW 16 28 1017.6 - 0.0 - - - - - - -
29/05:30am 11.5 WNW 15 23 1017.6 - 0.0 - - - - - - -
29/05:00am 11.2 NW 16 23 1017.5 - 0.0 - - - - - - -
29/04:30am 11.2 WNW 15 22 1017.6 - 0.0 - - - - - - -
29/04:00am 11.2 WNW 15 21 1017.6 - 0.0 - - - - - - -
29/03:30am 11.3 WNW 15 21 1017.8 - 0.0 - - - - - - -
29/03:00am 11.4 WNW 17 22 1018.1 - 0.0 - - - - - - -
29/02:36am 11.9 WNW 17 29 1018.2 - 0.0 - - - - - - -
29/02:30am 11.5 WNW 15 21 1018.4 - 0.0 - - - - - - -
29/02:00am 11.7 WNW 16 23 1018.3 - 0.0 - - - - - - -
29/01:30am 11.9 WNW 15 21 1018.2 - 0.0 - - - - - - -
29/01:00am 11.6 WNW 15 21 1018.1 - 0.0 - - - - - - -
29/12:30am 12.0 WNW 17 25 1018.3 - 0.0 - - - - - - -
29/12:00am 12.0 WNW 15 25 1018.6 - 0.0 - - - - - - -
 
Date/Time
EST
Temp
°C
Wind Pressure Rain since
9am
mm
Weather Cloud Vis
km
Sea
Height
m
Swell
Dir  Spd
kts
Gust
kts
hPa Trend Height
m
Period
s
Dir
28/11:52pm 12.2 WNW 15 25 1018.6 - 0.0 - - - - - - -
28/11:30pm 12.2 WNW 17 23 1018.7 - 0.0 - - - - - - -
28/11:06pm 11.8 NW 15 25 1019.0 - 0.0 - - - - - - -
28/11:00pm 12.0 NW 17 25 1019.0 - 0.0 - - - - - - -
28/10:57pm 12.2 NW 15 25 1019.1 - 0.0 - - - - - - -
28/10:30pm 11.9 WNW 12 20 1019.4 - 0.0 - - - - - - -
28/10:00pm 11.8 WNW 13 18 1019.8 - 0.0 - - - - - - -
28/09:30pm 12.0 WNW 10 15 1020.1 - 0.0 - - - - - - -
28/09:00pm 12.3 WNW 10 18 1020.0 - 0.0 - - - - - - -
28/08:30pm 11.9 WNW 10 15 1020.3 - 0.0 - - - - - - -
28/08:00pm 12.1 WNW 14 22 1020.6 - 0.0 - - - - - - -
28/07:30pm 12.1 WNW 13 17 1020.7 - 0.0 - - - - - - -
28/07:00pm 12.3 WNW 11 16 1020.8 - 0.0 - - - - - - -
28/06:30pm 12.1 W 13 17 1020.7 - 0.0 - - - - - - -
28/06:00pm 11.7 W 11 15 1020.3 - 0.0 - - - - - - -
28/05:30pm 11.7 W 13 18 1020.0 - 0.0 - - - - - - -
28/05:00pm 12.3 WNW 15 21 1019.7 - 0.0 - - - - - - -
28/04:30pm 13.1 WNW 17 23 1019.5 - 0.0 - - - - - - -
28/04:00pm 13.8 W 19 26 1019.4 - 0.0 - - - - - - -
28/03:30pm 13.6 WNW 17 29 1019.3 - 0.0 - - - - - - -
28/03:27pm 13.9 WNW 16 29 1019.3 - 0.0 - - - - - - -
28/03:00pm 13.1 W 17 24 1019.1 - 0.0 - - - - - - -
28/02:30pm 13.1 W 17 26 1019.0 - 0.0 - - - - - - -
28/02:29pm 13.1 W 16 26 1019.0 - 0.0 - - - - - - -
28/02:00pm 13.2 W 17 24 1019.0 - 0.0 - - - - - - -
28/01:30pm 13.2 W 22 29 1018.9 - 0.0 - - - - - - -
28/01:04pm 13.4 WNW 18 29 1019.0 - 0.0 - - - - - - -
28/01:00pm 13.5 WNW 19 27 1019.0 - 0.0 - - - - - - -
28/12:30pm 13.0 W 17 27 1019.3 - 0.0 - - - - - - -
28/12:09pm 13.2 WNW 19 29 1019.7 - 0.0 - - - - - - -
28/12:00pm 13.4 WNW 22 30 1019.7 - 0.0 - - - - - - -
28/11:30am 12.3 WNW 22 34 1020.2 - 0.0 - - - - - - -
28/11:03am 12.5 WNW 24 34 1020.3 - 0.0 - - - - - - -
28/11:00am 13.0 WNW 22 29 1020.4 - 0.0 - - - - - - -
28/10:39am 11.9 WNW 21 31 1020.5 - 0.0 - - - - - - -
28/10:30am 11.9 WNW 24 31 1020.5 - 0.0 - - - - - - -
28/10:20am 12.2 WNW 20 31 1020.5 - 0.0 - - - - - - -
28/10:00am 12.1 WNW 21 29 1020.1 - 0.0 - - - - - - -
28/09:30am 11.9 WNW 19 27 1020.0 - 0.0 - - - - - - -
28/09:00am 11.3 WNW 19 27 1020.0 - 0.2 - - - - - - -
28/08:52am 11.2 WNW 17 27 1019.9 - 0.2 - - - - - - -
28/08:30am 10.6 WNW 17 25 1019.9 - 0.2 - - - - - - -
28/08:00am 10.4 WNW 17 28 1020.0 - 0.2 - - - - - - -
28/07:33am 10.1 WNW 16 26 1019.8 - 0.2 - - - - - - -
28/07:30am 10.0 WNW 17 26 1019.8 - 0.2 - - - - - - -
28/07:00am 10.3 WNW 19 26 1019.4 - 0.2 - - - - - - -
28/06:30am 10.4 WNW 17 22 1019.5 - 0.2 - - - - - - -
28/06:14am 10.3 WNW 17 27 1019.4 - 0.2 - - - - - - -
28/06:00am 10.3 WNW 18 25 1019.1 - 0.2 - - - - - - -
28/05:30am 10.0 WNW 16 26 1018.9 - 0.2 - - - - - - -
28/05:15am 10.2 WNW 17 27 1018.6 - 0.2 - - - - - - -
28/05:00am 10.1 WNW 16 25 1018.7 - 0.2 - - - - - - -
28/04:30am 10.0 WNW 17 24 1018.6 - 0.2 - - - - - - -
28/04:00am 10.0 WNW 17 26 1018.2 - 0.2 - - - - - - -
28/03:33am 9.7 WNW 20 30 1018.0 - 0.2 - - - - - - -
28/03:30am 9.7 WNW 20 27 1018.0 - 0.2 - - - - - - -
28/03:00am 9.5 WNW 18 26 1018.1 - 0.2 - - - - - - -
28/02:30am 9.6 WNW 18 25 1018.6 - 0.2 - - - - - - -
28/02:00am 9.2 WNW 15 20 1018.6 - 0.2 - - - - - - -
28/01:30am 9.3 WNW 14 20 1018.6 - 0.2 - - - - - - -
28/01:00am 9.5 WNW 15 20 1018.6 - 0.2 - - - - - - -
28/12:30am 9.3 WNW 17 23 1018.3 - 0.2 - - - - - - -
28/12:00am 9.7 WNW 19 26 1018.1 - 0.2 - - - - - - -
 
Date/Time
EST
Temp
°C
Wind Pressure Rain since
9am
mm
Weather Cloud Vis
km
Sea
Height
m
Swell
Dir  Spd
kts
Gust
kts
hPa Trend Height
m
Period
s
Dir
27/11:35pm 9.7 WNW 18 28 1017.9 - 0.2 - - - - - - -
27/11:30pm 9.6 WNW 20 28 1017.9 - 0.2 - - - - - - -
27/11:00pm 9.7 WNW 17 25 1018.1 - 0.2 - - - - - - -
27/10:30pm 9.2 WNW 16 23 1018.2 - 0.2 - - - - - - -
27/10:00pm 9.1 WNW 14 22 1017.9 - 0.2 - - - - - - -
27/09:45pm 9.1 WNW 16 26 1018.3 - 0.2 - - - - - - -
27/09:30pm 9.1 WNW 17 24 1018.2 - 0.2 - - - - - - -
27/09:00pm 8.9 WNW 17 23 1018.4 - 0.2 - - - - - - -
27/08:30pm 8.8 WNW 17 24 1018.1 - 0.2 - - - - - - -
27/08:00pm 9.0 WNW 18 25 1018.1 - 0.2 - - - - - - -
27/07:30pm 8.7 WNW 17 22 1017.7 - 0.2 - - - - - - -
27/07:00pm 8.8 WNW 17 21 1017.6 - 0.2 - - - - - - -
27/06:30pm 8.3 WNW 17 22 1016.9 - 0.2 - - - - - - -
27/06:00pm 8.7 WNW 17 23 1016.3 - 0.2 - - - - - - -
27/05:30pm 8.4 WNW 15 22 1016.3 - 0.2 - - - - - - -
27/05:00pm 9.2 W 16 21 1015.8 - 0.2 - - - - - - -
27/04:30pm 9.3 W 19 31 1015.4 - 0.2 - - - - - - -
27/04:25pm 9.7 W 16 29 1015.5 - 0.2 - - - - - - -
27/04:00pm 9.6 WSW 17 23 1015.0 - 0.0 - - - - - - -
27/03:35pm 11.0 W 18 28 1014.6 - 0.0 - - - - - - -
27/03:30pm 10.8 W 18 26 1014.5 - 0.0 - - - - - - -
27/03:00pm 11.0 W 13 20 1014.0 - 0.0 - - - - - - -
27/02:30pm 10.1 W 15 21 1013.9 - 0.0 - - - - - - -
27/02:00pm 11.1 W 18 23 1013.1 - 0.0 - - - - - - -
27/01:30pm 11.1 W 21 28 1012.9 - 0.0 - - - - - - -
27/01:16pm 11.1 WSW 16 26 1012.7 - 0.0 - - - - - - -
27/01:00pm 11.0 WSW 17 25 1012.5 - 0.0 - - - - - - -
27/12:30pm 10.9 WSW 19 25 1012.5 - 0.0 - - - - - - -
27/12:02pm 10.3 WSW 19 29 1012.5 - 0.0 - - - - - - -
27/12:00pm 10.3 SW 20 29 1012.6 - 0.0 - - - - - - -
27/11:41am 10.9 WSW 17 28 1012.4 - 0.0 - - - - - - -
27/11:30am 11.5 WSW 18 23 1012.3 - 0.0 - - - - - - -
27/11:00am 10.7 WSW 14 19 1012.2 - 0.0 - - - - - - -
27/10:30am 10.3 WSW 12 17 1011.9 - 0.0 - - - - - - -
27/10:00am 9.7 WSW 12 15 1011.4 - 0.0 - - - - - - -
27/09:30am 9.4 W 9 12 1010.6 - 0.0 - - - - - - -
27/09:00am 9.2 W 12 17 1009.5 - 0.0 - - - - - - -
27/08:30am 9.4 W 15 22 1008.4 - 0.0 - - - - - - -
27/08:00am 9.6 WNW 13 18 1007.4 - 0.0 - - - - - - -
27/07:30am 9.3 WNW 12 18 1007.0 - 0.0 - - - - - - -
27/07:00am 9.6 WNW 13 17 1006.5 - 0.0 - - - - - - -
27/06:30am 9.8 WNW 12 16 1006.2 - 0.0 - - - - - - -
27/06:00am 9.6 W 12 17 1005.8 - 0.0 - - - - - - -
27/05:30am 9.8 W 13 21 1005.3 - 0.0 - - - - - - -
27/05:00am 8.8 WNW 11 15 1004.5 - 0.0 - - - - - - -
27/04:30am 9.0 W 11 22 1004.2 - 0.0 - - - - - - -
27/04:00am 9.7 WNW 14 23 1003.5 - 0.0 - - - - - - -
27/03:30am 9.5 NW 11 17 1003.6 - 0.0 - - - - - - -
27/03:00am 9.6 NW 12 16 1003.7 - 0.0 - - - - - - -
27/02:30am 9.1 NNW 10 19 1003.9 - 0.0 - - - - - - -
27/02:00am 8.5 NNW 11 17 1004.0 - 0.0 - - - - - - -
27/01:30am 7.2 NNW 7 10 1004.3 - 0.0 - - - - - - -
27/01:00am 9.1 NNW 7 11 1004.5 - 0.0 - - - - - - -
27/12:30am 8.7 N 8 12 1004.6 - 0.0 - - - - - - -
27/12:00am 8.9 NNW 10 16 1004.6 - 0.0 - - - - - - -
 
Date/Time
EST
Temp
°C
Wind Pressure Rain since
9am
mm
Weather Cloud Vis
km
Sea
Height
m
Swell
Dir  Spd
kts
Gust
kts
hPa Trend Height
m
Period
s
Dir
26/11:30pm 9.9 NNW 14 20 1004.9 - 0.0 - - - - - - -
26/11:00pm 9.6 NW 14 19 1005.4 - 0.0 - - - - - - -
26/10:37pm 9.7 NW 16 26 1005.3 - 0.0 - - - - - - -
26/10:30pm 9.7 NW 16 25 1005.4 - 0.0 - - - - - - -
26/10:26pm 9.8 NW 15 25 1005.5 - 0.0 - - - - - - -
26/10:00pm 9.0 NW 9 15 1005.9 - 0.0 - - - - - - -
26/09:30pm 8.0 N 7 11 1006.1 - 0.0 - - - - - - -
26/09:00pm 9.1 NNW 10 16 1006.2 - 0.0 - - - - - - -
26/08:30pm 8.3 NW 6 14 1006.6 - 0.0 - - - - - - -
26/08:00pm 8.2 NNW 7 11 1006.6 - 0.0 - - - - - - -
26/07:30pm 7.8 NNW 9 13 1006.7 - 0.0 - - - - - - -
26/07:00pm 9.0 NNW 17 25 1006.8 - 0.0 - - - - - - -
26/06:30pm 8.4 NW 13 21 1006.9 - 0.0 - - - - - - -
26/06:00pm 8.1 N 8 13 1007.0 - 0.0 - - - - - - -
26/05:30pm 8.5 NW 8 13 1007.3 - 0.0 - - - - - - -
26/05:00pm 9.4 WNW 12 18 1007.3 - 0.0 - - - - - - -
26/04:30pm 9.2 NW 9 12 1007.3 - 0.0 - - - - - - -
26/04:00pm 9.8 NW 16 24 1007.7 - 0.0 - - - - - - -
26/03:30pm 10.5 NW 18 26 1008.0 - 0.0 - - - - - - -
26/03:19pm 10.4 NW 19 29 1007.9 - 0.0 - - - - - - -
26/03:00pm 10.3 NW 19 27 1008.1 - 0.0 - - - - - - -
26/02:30pm 10.3 WNW 19 29 1008.6 - 0.0 - - - - - - -
26/02:00pm 10.5 NW 20 31 1008.8 - 0.0 - - - - - - -
26/01:31pm 10.8 NW 20 30 1009.0 - 0.0 - - - - - - -
26/01:30pm 10.7 NW 21 30 1009.0 - 0.0 - - - - - - -
26/01:00pm 10.5 NW 22 30 1009.4 - 0.0 - - - - - - -
26/12:48pm 10.6 NW 19 30 1009.5 - 0.0 - - - - - - -
26/12:30pm 10.7 NW 18 24 1009.7 - 0.0 - - - - - - -
26/12:00pm 10.4 NW 16 25 1010.2 - 0.0 - - - - - - -
26/11:59am 10.4 NW 15 25 1010.2 - 0.0 - - - - - - -
26/11:30am 10.0 NW 19 25 1010.2 - 0.0 - - - - - - -
26/11:18am 9.9 NW 18 28 1010.3 - 0.0 - - - - - - -
26/11:00am 9.6 NW 19 27 1010.2 - 0.0 - - - - - - -
26/10:30am 9.3 NW 17 24 1010.3 - 0.0 - - - - - - -
26/10:00am 9.2 WNW 17 26 1010.2 - 0.0 - - - - - - -
26/09:54am 9.0 WNW 16 26 1010.3 - 0.0 - - - - - - -
26/09:30am 8.4 NW 18 24 1010.1 - 0.0 - - - - - - -
26/09:00am 8.2 WNW 17 22 1010.1 - 3.2 - - - - - - -
26/08:30am 8.0 WNW 16 26 1009.7 - 3.2 - - - - - - -
26/08:01am 7.6 WNW 15 29 1009.3 - 3.2 - - - - - - -
26/08:00am 7.3 WNW 14 26 1009.5 - 3.2 - - - - - - -
26/07:30am 7.4 NW 12 17 1009.3 - 3.2 - - - - - - -
26/07:00am 6.8 WNW 12 18 1008.6 - 3.2 - - - - - - -
26/06:30am 6.8 WNW 18 26 1007.7 - 3.2 - - - - - - -

Other Formats:

Comma delimited format used in spreadsheet applications
http://www.bom.gov.au/fwo/IDV60701/IDV60701.95890.axf

JavaScript Object Notation format (JSON) in row-major order
http://www.bom.gov.au/fwo/IDV60701/IDV60701.95890.json